Location: Miles
(41.4492°N, 81.6087°W)
Time: 07:06:15
(UTC+00:00)

Vanguard 1 Rocket - Pass Details

Date: 16 September 2024
Orbit: 650 x 4218 km, 34.3° (Epoch: 09 October)

Event Time Altitude Azimuth Distance (km) Brightness Sun altitude
Rises 06:36:35 0° 198° (SSW) 4,631 - -42.9°
Reaches altitude 10° 06:39:45 10° 186° (S) 4,062 - -42.6°
Exits shadow 06:48:33 28° 136° (SE) 3,846 10.3 -41.9°
Maximum altitude 06:49:07 28° 132° (SE) 3,901 10.4 -41.8°
Drops below altitude 10° 07:04:02 10° 83° (E) 6,615 12.1 -40.3°
Sets 07:11:12 0° 75° (ENE) 8,087 12.8 -39.5°
